Location: Asis
(14.1331°N, 120.9056°E)
Time: 12:49:24
(UTC+00:00)

YAOGAN 3 - Pass Details

Date: 15 January 2026
Orbit: 596 x 598 km, 97.8° (Epoch: 17 February)

Event Time Altitude Azimuth Distance (km) Brightness Sun altitude
Rises 11:03:47 0° 165° (SSE) 2,832 8.0 -18.3°
Reaches altitude 10° 11:05:57 10° 163° (SSE) 1,931 7.1 -18.8°
Maximum altitude 11:10:08 74° 79° (ENE) 624 4.3 -19.8°
Drops below altitude 10° 11:14:20 10° 353° (N) 1,933 7.0 -20.8°
Sets 11:16:30 0° 352° (N) 2,836 7.9 -21.3°
